Stowe, USA 16 day weather forecast

Slopes altitude range 390 m - 1135m

Number of lifts: 12 Pistes: 68km

In some cases the lift and piste totals shown are for the ski domain (e.g. Three Valleys) rather than individual resort (e.g. Courchevel)

Overview

The 16 day weather forecast is fully updated 4 times every day.

    • Mon 22 APR 2019
    • Mon 22
    • 6C 9C
    • Tue 23 APR 2019
    • Tue 23
    • 7C 8C
    • Wed 24 APR 2019
    • Wed 24
    • 10C 13C
    • Thu 25 APR 2019
    • Thu 25
    • 1C 4C
    • Fri 26 APR 2019
    • Fri 26
    • 6C 8C
    • Sat 27 APR 2019
    • Sat 27
    • 5C 7C
    • Sun 28 APR 2019
    • Sun 28
    • 0C 5C
    • Mon 29 APR 2019
    • Mon 29
    • 4C 5C
    • Tue 30 APR 2019
    • Tue 30
    • 0C 3C
    • Wed 01 MAY 2019
    • Wed 01
    • 1C 5C
    • Thu 02 MAY 2019
    • Thu 02
    • 3C 9C
    • Fri 03 MAY 2019
    • Fri 03
    • 10C 14C
    • Sat 04 MAY 2019
    • Sat 04
    • 4C 12C
    • Sun 05 MAY 2019
    • Sun 05
    • 10C 16C
    • Mon 06 MAY 2019
    • Mon 06
    • 5C 13C
    • Tue 07 MAY 2019
    • Tue 07
    • 10C 14C

Date:

Time Type 0°C level Temp Chill Snow Cloud Speed Gust Dir Press
3:00 2595m 10°C 10_3 0cm 98% 3mph 4mph 1021mB
6:00 2576m 9°C 9_3 0cm 61% 3mph 4mph 1022mB
9:00 2577m 7°C 7_4 0cm 1% 4mph 5mph 1022mB
12:00 2508m 9°C 9_7 0cm 0% 7mph 10mph 1023mB
15:00 2584m 14°C 14_9 0cm 0% 9mph 11mph 1023mB
18:00 2670m 17°C 17_10 0cm 0% 10mph 13mph 1021mB
21:00 2627m 17°C 17_11 0cm 27% 11mph 16mph 1020mB
0:00 2845m 12°C 12_8 0cm 19% 8mph 19mph 1020mB
3:00 2835m 9°C 9_7 0cm 3% 7mph 20mph 1021mB
6:00 2608m 8°C 8_6 0cm 14% 6mph 10mph 1020mB
9:00 2531m 7°C 7_3 0cm 83% 3mph 4mph 1019mB
12:00 2558m 8°C 8_2 0cm 91% 2mph 3mph 1019mB
15:00 2768m 14°C 14_3 0cm 100% 3mph 4mph 1017mB
18:00 2853m 19°C 19_4 0cm 70% 4mph 6mph 1013mB
21:00 2920m 19°C 19_6 0cm 6% 6mph 11mph 1010mB
0:00 2850m 15°C 15_6 0cm 51% 6mph 10mph 1008mB
3:00 2949m 14°C 14_14 0cm 83% 14mph 35mph 1005mB
6:00 2744m 13°C 13_14 0cm 92% 14mph 34mph 1002mB
9:00 2277m 13°C 13_8 0cm 100% 8mph 23mph 1001mB
12:00 1545m 13°C 13_12 0cm 90% 12mph 24mph 1002mB
15:00 1294m 10°C 10_9 0cm 100% 9mph 18mph 1002mB
18:00 1144m 10°C 10_11 0cm 100% 11mph 21mph 1002mB
21:00 1000m 7°C 7_11 0cm 100% 11mph 24mph 1003mB
0:00 976m 7°C 7_13 0cm 100% 13mph 28mph 1006mB
3:00 777m 5°C 5_12 0cm 96% 12mph 25mph 1008mB
6:00 676m 4°C 4_9 0cm 96% 9mph 22mph 1009mB
9:00 606m 2°C 2_7 0cm 50% 7mph 19mph 1010mB
12:00 486m 4°C 4_9 0cm 31% 9mph 16mph 1012mB
15:00 823m 9°C 9_9 0cm 9% 9mph 12mph 1012mB
18:00 1222m 13°C 13_9 0cm 5% 9mph 13mph 1010mB
21:00 1514m 13°C 13_8 0cm 66% 8mph 12mph 1010mB
0:00 1540m 8°C 8_1 0cm 82% 1mph 2mph 1011mB
3:00 1800m 7°C 7_3 0cm 99% 3mph 4mph 1010mB
6:00 1658m 7°C 7_3 0cm 100% 3mph 3mph 1009mB
9:00 1763m 7°C 7_2 0cm 99% 2mph 3mph 1009mB
12:00 1733m 8°C 8_2 0cm 97% 2mph 3mph 1010mB
15:00 1545m 8°C 8_6 0cm 96% 6mph 9mph 1010mB
18:00 1549m 10°C 10_5 0cm 97% 5mph 8mph 1010mB
21:00 1573m 10°C 10_3 0cm 83% 3mph 7mph 1009mB
0:00 1844m 8°C 8_7 0cm 56% 7mph 9mph 1009mB
3:00 1533m 7°C 7_7 0cm 87% 7mph 17mph 1009mB
6:00 1426m 7°C 7_7 0cm 92% 7mph 21mph 1008mB
9:00 1047m 6°C 6_13 0cm 100% 13mph 28mph 1009mB
12:00 1019m 7°C 7_11 0cm 95% 11mph 19mph 1011mB
15:00 875m 9°C 9_17 0cm 5% 17mph 23mph 1012mB
18:00 983m 10°C 10_18 0cm 7% 18mph 25mph 1011mB
21:00 1050m 10°C 10_16 0cm 39% 16mph 25mph 1012mB
0:00 1022m 5°C 5_6 0cm 62% 6mph 14mph 1015mB
3:00 1003m 3°C 3_4 0cm 89% 4mph 5mph 1017mB
6:00 913m 1°C 1_3 0cm 72% 3mph 4mph 1017mB
9:00 940m 0°C 0_5 0cm 4% 5mph 6mph 1016mB
12:00 1244m 5°C 5_5 0cm 49% 5mph 9mph 1014mB
15:00 1442m 9°C 9_9 0cm 100% 9mph 18mph 1010mB
18:00 956m 9°C 9_14 0cm 100% 14mph 33mph 1007mB
21:00 2592m 5°C 5_14 0cm 100% 14mph 33mph 1003mB
0:00 2045m 5°C 5_4 0cm 100% 4mph 18mph 1000mB
3:00 1269m 5°C 5_4 0cm 100% 4mph 9mph 998mB
6:00 1154m 5°C 5_3 0cm 100% 3mph 4mph 996mB
9:00 1044m 4°C 4_7 0cm 100% 7mph 15mph 996mB
12:00 682m 5°C 5_15 0cm 100% 15mph 27mph 999mB
15:00 814m 6°C 6_16 0cm 100% 16mph 29mph 1003mB
18:00 903m 7°C 7_18 0cm 100% 18mph 32mph 1007mB
21:00 1031m 7°C 7_18 0cm 100% 18mph 32mph 1010mB
0:00 925m 6°C 6_16 0cm 100% 16mph 33mph 1013mB
3:00 763m 4°C 4_15 0cm 100% 15mph 30mph 1015mB
6:00 669m 3°C 3_13 0cm 98% 13mph 27mph 1017mB
9:00 363m 1°C 1_14 0cm 82% 14mph 28mph 1018mB
12:00 246m 3°C 3_13 0cm 46% 13mph 20mph 1020mB
15:00 577m 7°C 7_13 0cm 9% 13mph 18mph 1019mB
18:00 1108m 11°C 11_14 0cm 18% 14mph 23mph 1018mB
21:00 1382m 11°C 11_10 0cm 99% 10mph 21mph 1018mB
0:00 1396m 9°C 9_6 0cm 100% 6mph 13mph 1020mB
3:00 1258m 4°C 4_4 0cm 71% 4mph 6mph 1021mB
6:00 1159m 3°C 3_5 0cm 81% 5mph 6mph 1021mB
9:00 1073m 1°C 1_3 0cm 93% 3mph 4mph 1022mB
12:00 1026m 5°C 5_5 0cm 67% 5mph 8mph 1022mB
15:00 1023m 11°C 11_7 0cm 2% 7mph 9mph 1020mB
18:00 1301m 13°C 13_9 0cm 33% 9mph 12mph 1018mB
21:00 1613m 13°C 13_8 0cm 64% 8mph 12mph 1018mB
0:00 2980m 9°C 9_5 0cm 32% 5mph 7mph 1020mB
Afternoon 0mm 0 3247m 9°C 9_3 0cm 0% 3mph 5mph 1023mB
Morning 0mm 0 3809m 9°C 9_2 0cm 18% 2mph 4mph 1018mB
Afternoon 0mm 0 3484m 14°C 14_7 0cm 50% 7mph 12mph 1016mB
Morning 0.145833mm 0.25 3281m 12°C 12_2 0cm 82% 2mph 3mph 1016mB
Afternoon 0.00520833mm 0 3122m 12°C 12_5 0cm 42% 5mph 7mph 1024mB
Morning 0.03125mm 0.25 3644m 9°C 9_14 0cm 90% 14mph 33mph 1015mB
Afternoon 0.166667mm 1.9375 3759m 16°C 16_12 0cm 89% 12mph 31mph 1006mB
Morning 0.0416667mm 0.5 2446m 14°C 14_21 0cm 18% 21mph 36mph 1012mB
Afternoon 0mm 0 2651m 13°C 13_11 0cm 5% 11mph 18mph 1023mB
Morning 0mm 0 3126m 9°C 9_4 0cm 92% 4mph 5mph 1019mB
Afternoon 0.244792mm 0 3312m 14°C 14_5 0cm 99% 5mph 13mph 1010mB
Morning 0.0260417mm 0.0625 1553m 12°C 12_12 0cm 48% 12mph 27mph 1014mB

16 day outlook at a glance

Forecast issued: 22/04/2019 08:17:15

Chat

Your comments and questions. In a resort? Let us know what it's like!


Characters left 250

For terms and conditions see Readers Comments on the Cookie and privacy policy page.